Location: Bednik
(45.3500°N, 16.3833°E)
Time: 09:58:01
(UTC+00:00)

ATLAS 3B R/B - Pass Details

Date: 08 August 2020
Orbit: 1016 x 1179 km, 63.8° (Epoch: 17 September)

Event Time Altitude Azimuth Distance (km) Brightness Sun altitude
Exits shadow 20:34:03 15° 87° (E) 2,452 4.3 -20.5°
Drops below altitude 10° 20:36:08 10° 69° (ENE) 2,810 4.7 -20.7°
Sets 20:39:45 0° 51° (NE) 3,780 5.6 -21.1°
